Location: Unspecified
(0.0000°N, 0.0000°E)
Time: 21:22:39
(UTC+00:00)

Explorer 7 - Pass Details

Date: 25 June 2025
Orbit: 444 x 569 km, 50.3° (Epoch: 12 July)

Event Time Altitude Azimuth Distance (km) Brightness Sun altitude
Rises 21:17:47 0° 310° (NW) 2,433 - -43.6°
Reaches altitude 10° 21:19:59 10° 302° (WNW) 1,576 - -44.1°
Maximum altitude 21:23:18 37° 233° (SW) 724 - -44.8°
Drops below altitude 10° 21:26:44 10° 164° (SSE) 1,633 - -45.5°
Sets 21:29:02 0° 155° (SSE) 2,536 - -46.0°
